[Iaude] MPEC G42: 2024 FU4 [a=2.22,e=0.54,i=2.3,H=25.5]
    mpec at cfa.harvard.edu 
    mpec at cfa.harvard.edu
       
    Thu Apr  4 08:42:06 EDT 2024
    
    
  
M.P.E.C. 2024-G42                                 Issued 2024 April 4, 12:40 UT
     The Minor Planet Electronic Circulars contain information on unusual
         minor planets, routine data on comets and natural satellites,
         and occasional editorial announcements.  They are published
    on behalf of Division F of the International Astronomical Union by the
          Minor Planet Center, Smithsonian Astrophysical Observatory,
                          Cambridge, MA 02138, U.S.A.
			  
             Prepared using the Tamkin Foundation Computer Network
                              MPC at CFA.HARVARD.EDU
            URL https://www.minorplanetcenter.net/    ISSN 1523-6714
                                    2024 FU4                                    
Observations:
     K24F04U* C2024 03 31.37533711 27 07.385-20 04 32.49         21.77wXEG042F51
     K24F04U  C2024 03 31.38657111 27 09.241-20 05 14.32         21.39wXEG042F51
     K24F04U  C2024 03 31.39896811 27 11.238-20 05 59.90         21.17wXEG042F51
     K24F04U  C2024 03 31.41019711 27 13.085-20 06 41.07         21.54wXEG042F51
     K24F04U  C2024 03 31.51965911 27 31.674-20 13 18.81         20.92GVEG042F52
     K24F04U  C2024 03 31.52030811 27 31.765-20 13 21.22         21.80GVEG042F52
     K24F04U |C2024 04 02.18385011 33 47.260-22 02 05.50         21.2 GVEG042807
     K24F04U |C2024 04 02.18935011 33 48.400-22 02 28.20         21.2 GVEG042807
     K24F04U |C2024 04 02.19486011 33 49.520-22 02 51.10         21.4 GVEG042807
     K24F04U  C2024 04 02.40603911 34 43.100-22 19 06.32         21.33GVEG042F51
     K24F04U  C2024 04 02.40685611 34 43.230-22 19 08.62         22.32GVEG042F51
     K24F04U  C2024 04 02.40767711 34 43.458-22 19 13.09         21.17GVEG042F51
     K24F04U |C2024 04 04.17980011 43 01.130-24 32 38.10         21.3 GVEG042807
     K24F04U |C2024 04 04.18428011 43 02.330-24 32 59.60         21.3 GVEG042807
     K24F04U |C2024 04 04.18861011 43 03.470-24 33 20.50         21.2 GVEG042807
Observer details:
807 Cerro Tololo Observatory, La Serena.  Observers T. Linder, R. Holmes.
    0.61-m f/6.8 Ritchey-Chretien + CCD.
F51 Pan-STARRS 1, Haleakala.  Observers J. Herman, T. Lowe, P. Minguez, A.
    Schultz, I. Smith.  Measurers K. Chambers, T. de Boer, J. Fairlamb, H.
    Gao, M. Huber, C.-C. Lin, E. Magnier, Y. Ramanjooloo, R. Wainscoat, R.
    Weryk.  1.8-m Ritchey-Chretien + CCD.
F52 Pan-STARRS 2, Haleakala.  Observers J. Herman, T. Lowe, P. Minguez, A.
    Schultz, I. Smith.  Measurers K. Chambers, T. de Boer, J. Fairlamb, H.
    Gao, M. Huber, C.-C. Lin, E. Magnier, Y. Ramanjooloo, R. Wainscoat, R.
    Weryk.  1.8-m Ritchey-Chretien + CCD.
Orbital elements:
2024 FU4                                                 Earth MOID = 0.0274 AU
Epoch 2024 Mar. 31.0 TT = JDT 2460400.5                 Veres                   
M 351.33658              (2000.0)            P               Q                  
n   0.29796564     Peri.  336.81815     -0.74114277     +0.67033166             
a   2.2200287      Node   245.32779     -0.60941308     -0.69482068             
e   0.5351190      Incl.    2.32832     -0.28164356     -0.26053729             
P   3.31           H   25.52          G   0.15           U   8                  
Residuals in seconds of arc
240331 F51  0.1-  0.0     240331 F52  0.2-  0.0     240402 F51 (0.6-  1.2+)
240331 F51  0.3+  0.2-    240402 807  0.3+  0.1-    240402 F51  0.2+  0.2+
240331 F51  0.1-  0.0     240402 807  0.1+  0.1+    240404 807  0.4+  0.1-
240331 F51  0.0   0.1+    240402 807  0.4-  0.1+    240404 807  0.2+  0.0
240331 F52  0.2+  0.0     240402 F51  0.0   0.0     240404 807  0.3-  0.0
Ephemeris:
2024 FU4                 a,e,i = 2.22, 0.54, 2                   q = 1.0320
Date    TT    R. A. (2000) Decl.     Delta      r    Elong.  Phase     V
2024 03 05    10 58 08.2 -06 15 57   0.2386  1.2259   167.6    10.0    23.5
...
2024 03 20    11 05 22.0 -11 50 00   0.1521  1.1416   162.2    15.5    22.6
...
2024 03 28    11 17 43.7 -16 58 26   0.1138  1.1043   157.9    19.9    22.0
...
2024 04 03    11 37 19.0 -23 01 09   0.08839 1.0807   155.2    22.8    21.5
2024 04 04    11 42 06.6 -24 18 16   0.08450 1.0772   154.8    23.3    21.4
2024 04 05    11 47 31.4 -25 41 15   0.08072 1.0737   154.3    23.8    21.3
...
2024 04 11    12 40 16.1 -36 17 04   0.06115 1.0559   150.7    27.7    20.8
...
2024 04 19    15 41 49.0 -49 55 48   0.04918 1.0395   134.7    43.4    20.7
...
2024 05 04    20 04 32.1 -29 36 48   0.07997 1.0337   106.4    69.3    22.5
M. P. C. Staff               (C) Copyright 2024 MPC           M.P.E.C. 2024-G42
    
    
More information about the Iaude
mailing list